Location: ????????
(55.0559°N, 39.1270°E)
Time: 18:09:11
(UTC+00:00)

Okean 1 Rocket - Pass Details

Date: 15 November 2025
Orbit: 599 x 628 km, 82.5° (Epoch: 14 December)

Event Time Altitude Azimuth Distance (km) Brightness Sun altitude
Rises 03:01:09 0° 348° (NNW) 2,881 6.3 -16.1°
Reaches altitude 10° 03:03:23 10° 349° (N) 1,969 5.4 -15.8°
Maximum altitude 03:07:45 84° 77° (ENE) 614 3.0 -15.1°
Drops below altitude 10° 03:12:03 10° 167° (SSE) 1,941 5.9 -14.5°
Sets 03:14:14 0° 168° (SSE) 2,838 6.8 -14.2°
